| time (UTC) | temp C | wind direction | speed KPH | gust KPH | rain 1hr cm | rain 24hr cm | rain mn cm | humidity % | barometer mb |
| 20260507031510 | 11 | 234 | 4.8 | 12.9 | 0.00 | 0.05 | 0.05 | 89 | 1019.9 |
| 20260507030006 | 11 | 216 | 4.8 | 9.7 | 0.00 | 0.05 | 0.05 | 88 | 1019.8 |
| 20260507024509 | 11 | 280 | 6.4 | 11.3 | 0.00 | 0.05 | 0.05 | 88 | 1019.8 |
| 20260507023004 | 11 | 286 | 6.4 | 17.7 | 0.00 | 0.05 | 0.05 | 88 | 1019.7 |
| 20260507021504 | 11 | 237 | 8.0 | 14.5 | 0.00 | 0.05 | 0.05 | 88 | 1019.5 |
| 20260507020004 | 11 | 280 | 8.0 | 19.3 | 0.00 | 0.05 | 0.05 | 88 | 1019.7 |
| 20260507014503 | 11 | 235 | 8.0 | 17.7 | 0.00 | 0.05 | 0.05 | 88 | 1019.8 |
| 20260507013008 | 11 | 246 | 8.0 | 16.1 | 0.00 | 0.05 | 0.05 | 88 | 1019.8 |
| 20260507011509 | 11 | 317 | 8.0 | 16.1 | 0.00 | 0.05 | 0.05 | 88 | 1019.7 |
| 20260507010002 | 11 | 309 | 6.4 | 17.7 | 0.00 | 0.05 | 0.05 | 87 | 1019.7 |
| 20260507004501 | 11 | 248 | 11.3 | 19.3 | 0.00 | 0.05 | 0.05 | 88 | 1019.8 |
| 20260507003100 | 11 | 252 | 9.7 | 19.3 | 0.00 | 0.05 | 0.05 | 87 | 1019.8 |
| 20260507001600 | 11 | 265 | 9.7 | 17.7 | 0.00 | 0.05 | 0.05 | 88 | 1019.8 |
| 20260507000101 | 11 | 276 | 9.7 | 22.5 | 0.00 | 0.05 | 0.05 | 87 | 1019.8 |
| 20260506234559 | 11 | 259 | 11.3 | 20.9 | 0.00 | 0.05 | 0.05 | 88 | 1019.8 |
| 20260506233111 | 11 | 242 | 8.0 | 14.5 | 0.00 | 0.05 | 0.05 | 89 | 1019.9 |
| 20260506231602 | 11 | 266 | 9.7 | 16.1 | 0.00 | 0.05 | 0.05 | 89 | 1019.9 |
| 20260506230057 | 11 | 235 | 9.7 | 17.7 | 0.00 | 0.05 | 0.05 | 90 | 1019.9 |
| 20260506224556 | 11 | 206 | 9.7 | 16.1 | 0.00 | 0.05 | 0.05 | 91 | 1019.9 |
| 20260506223055 | 11 | 234 | 8.0 | 19.3 | 0.00 | 0.05 | 0.05 | 92 | 1020.0 |
| 20260506221558 | 10 | 229 | 8.0 | 14.5 | 0.00 | 0.05 | 0.05 | 93 | 1020.0 |
| 20260506220054 | 10 | 234 | 6.4 | 19.3 | 0.00 | 0.05 | 0.05 | 95 | 1020.0 |
| 20260506214555 | 10 | 250 | 8.0 | 20.9 | 0.00 | 0.05 | 0.05 | 96 | 1020.1 |
| 20260506213110 | 10 | 246 | 9.7 | 14.5 | 0.00 | 0.05 | 0.05 | 97 | 1020.0 |
| 20260506211552 | 10 | 230 | 11.3 | 16.1 | 0.00 | 0.05 | 0.05 | 98 | 1020.0 |
| 20260506210050 | 10 | 219 | 11.3 | 19.3 | 0.00 | 0.05 | 0.05 | 98 | 1020.0 |
| 20260506204550 | 10 | 228 | 8.0 | 16.1 | 0.00 | 0.05 | 0.05 | 98 | 1020.0 |
| 20260506203049 | 10 | 231 | 9.7 | 16.1 | 0.00 | 0.05 | 0.05 | 98 | 1019.9 |
| 20260506201548 | 10 | 276 | 6.4 | 17.7 | 0.00 | 0.05 | 0.05 | 98 | 1019.9 |
| 20260506200047 | 10 | 240 | 9.7 | 19.3 | 0.00 | 0.05 | 0.05 | 98 | 1019.8 |
| 20260506194548 | 10 | 269 | 9.7 | 16.1 | 0.00 | 0.05 | 0.05 | 98 | 1019.8 |
| 20260506193044 | 10 | 228 | 8.0 | 14.5 | 0.00 | 0.05 | 0.05 | 98 | 1019.6 |
| 20260506191544 | 10 | 219 | 6.4 | 11.3 | 0.00 | 0.05 | 0.05 | 98 | 1019.5 |
| 20260506190044 | 10 | 238 | 6.4 | 14.5 | 0.00 | 0.05 | 0.05 | 98 | 1019.5 |
| 20260506184550 | 10 | 251 | 4.8 | 14.5 | 0.00 | 0.05 | 0.05 | 98 | 1019.6 |
| 20260506183054 | 10 | 277 | 4.8 | 14.5 | 0.00 | 0.05 | 0.05 | 98 | 1019.6 |
| 20260506181609 | 10 | 257 | 9.7 | 17.7 | 0.00 | 0.05 | 0.05 | 98 | 1019.4 |
| 20260506180041 | 10 | 217 | 8.0 | 17.7 | 0.00 | 0.05 | 0.05 | 98 | 1019.2 |
| 20260506174541 | 10 | 232 | 11.3 | 17.7 | 0.00 | 0.05 | 0.05 | 98 | 1019.1 |
| 20260506173054 | 10 | 220 | 8.0 | 17.7 | 0.00 | 0.05 | 0.05 | 98 | 1019.2 |
| 20260506171537 | 10 | 234 | 4.8 | 12.9 | 0.00 | 0.05 | 0.05 | 98 | 1019.4 |
| 20260506170039 | 10 | 230 | 8.0 | 12.9 | 0.00 | 0.05 | 0.05 | 98 | 1019.2 |
| 20260506164537 | 10 | 265 | 8.0 | 11.3 | 0.03 | 0.05 | 0.05 | 98 | 1019.1 |
| 20260506163037 | 10 | 263 | 3.2 | 16.1 | 0.03 | 0.05 | 0.05 | 98 | 1018.8 |
| 20260506161532 | 10 | 218 | 8.0 | 12.9 | 0.03 | 0.05 | 0.05 | 98 | 1018.5 |
| 20260506160033 | 10 | 230 | 4.8 | 12.9 | 0.03 | 0.05 | 0.05 | 98 | 1018.7 |
| 20260506154532 | 10 | 245 | 8.0 | 12.9 | 0.00 | 0.03 | 0.03 | 98 | 1018.8 |
| 20260506153030 | 10 | 191 | 8.0 | 17.7 | 0.03 | 0.03 | 0.03 | 97 | 1018.8 |
| 20260506151529 | 10 | 190 | 3.2 | 14.5 | 0.03 | 0.03 | 0.03 | 98 | 1018.6 |
| 20260506150032 | 10 | 213 | 6.4 | 14.5 | 0.03 | 0.03 | 0.03 | 98 | 1018.6 |
| 20260506144528 | 10 | 211 | 8.0 | 12.9 | 0.03 | 0.03 | 0.03 | 97 | 1018.7 |
| 20260506143031 | 10 | 224 | 3.2 | 12.9 | 0.00 | 0.00 | 0.00 | 97 | 1018.7 |
| 20260506141526 | 10 | 186 | 8.0 | 16.1 | 0.00 | 0.00 | 0.00 | 97 | 1018.4 |
| 20260506140026 | 10 | 211 | 4.8 | 11.3 | 0.00 | 0.00 | 0.00 | 97 | 1018.5 |
| 20260506134525 | 10 | 221 | 6.4 | 11.3 | 0.00 | 0.00 | 0.00 | 97 | 1018.5 |
| 20260506133026 | 10 | 238 | 4.8 | 12.9 | 0.00 | 0.00 | 0.00 | 97 | 1018.3 |
| 20260506131532 | 10 | 248 | 6.4 | 12.9 | 0.00 | 0.00 | 0.00 | 97 | 1018.0 |
| 20260506130022 | 10 | 200 | 9.7 | 19.3 | 0.00 | 0.00 | 0.00 | 97 | 1018.1 |
| 20260506124519 | 10 | 210 | 6.4 | 12.9 | 0.00 | 0.00 | 0.00 | 96 | 1017.9 |
| 20260506123019 | 10 | 213 | 6.4 | 12.9 | 0.00 | 0.00 | 0.00 | 96 | 1017.7 |
| 20260506121517 | 10 | 199 | 6.4 | 11.3 | 0.00 | 0.00 | 0.00 | 96 | 1017.8 |
| 20260506120019 | 10 | 197 | 8.0 | 12.9 | 0.00 | 0.00 | 0.00 | 96 | 1017.7 |
| 20260506114521 | 10 | 231 | 6.4 | 12.9 | 0.00 | 0.00 | 0.00 | 95 | 1017.5 |
| 20260506113025 | 10 | 223 | 9.7 | 14.5 | 0.00 | 0.00 | 0.00 | 95 | 1017.5 |
| 20260506111513 | 10 | 208 | 9.7 | 14.5 | 0.00 | 0.00 | 0.00 | 95 | 1017.5 |
| 20260506110012 | 10 | 227 | 9.7 | 12.9 | 0.00 | 0.00 | 0.00 | 95 | 1017.4 |
| 20260506104509 | 10 | 214 | 8.0 | 14.5 | 0.00 | 0.00 | 0.00 | 95 | 1017.2 |
| 20260506103012 | 10 | 239 | 11.3 | 17.7 | 0.00 | 0.00 | 0.00 | 95 | 1017.1 |
| 20260506101509 | 10 | 243 | 9.7 | 16.1 | 0.00 | 0.00 | 0.00 | 95 | 1017.1 |
| 20260506100009 | 10 | 235 | 11.3 | 19.3 | 0.00 | 0.00 | 0.00 | 95 | 1016.9 |
| 20260506094504 | 10 | 224 | 8.0 | 14.5 | 0.00 | 0.00 | 0.00 | 95 | 1016.8 |
| 20260506093003 | 10 | 219 | 11.3 | 17.7 | 0.00 | 0.00 | 0.00 | 94 | 1016.7 |
| 20260506091500 | 10 | 209 | 11.3 | 17.7 | 0.00 | 0.00 | 0.00 | 94 | 1016.7 |
| 20260506090104 | 10 | 236 | 11.3 | 16.1 | 0.00 | 0.00 | 0.00 | 94 | 1016.6 |
| 20260506084605 | 10 | 233 | 11.3 | 17.7 | 0.00 | 0.00 | 0.00 | 94 | 1016.4 |
| 20260506083056 | 10 | 183 | 9.7 | 16.1 | 0.00 | 0.00 | 0.00 | 93 | 1016.4 |
| 20260506081554 | 10 | 197 | 9.7 | 14.5 | 0.00 | 0.00 | 0.00 | 93 | 1016.3 |
| 20260506080104 | 11 | 192 | 9.7 | 14.5 | 0.00 | 0.00 | 0.00 | 93 | 1016.3 |
| 20260506073049 | 11 | 203 | 8.0 | 14.5 | 0.00 | 0.00 | 0.00 | 92 | 1016.2 |
| 20260506071545 | 11 | 196 | 8.0 | 14.5 | 0.00 | 0.00 | 0.00 | 91 | 1016.1 |
| 20260506061538 | 12 | 211 | 11.3 | 14.5 | 0.00 | 0.00 | 0.00 | 89 | 1015.5 |
| 20260506044538 | 13 | 231 | 9.7 | 16.1 | 0.00 | 0.00 | 0.00 | 86 | 1015.1 |
| 20260506043035 | 13 | 192 | 11.3 | 14.5 | 0.00 | 0.00 | 0.00 | 85 | 1015.0 |
| 20260506041535 | 13 | 214 | 8.0 | 12.9 | 0.00 | 0.00 | 0.00 | 84 | 1014.9 |
| 20260506040034 | 13 | 203 | 9.7 | 12.9 | 0.00 | 0.00 | 0.00 | 83 | 1014.9 |
| 20260506034537 | 14 | 214 | 4.8 | 9.7 | 0.00 | 0.00 | 0.00 | 81 | 1014.8 |
| 20260506033033 | 15 | 196 | 3.2 | 11.3 | 0.00 | 0.00 | 0.00 | 79 | 1014.6 |